CST,Max TemperatureF,Mean TemperatureF,Min TemperatureF,Max Dew PointF,MeanDew PointF,Min DewpointF,Max Humidity, Mean Humidity, Min Humidity, Max Sea Level PressureIn, Mean Sea Level PressureIn, Min Sea Level PressureIn, Max VisibilityMiles, Mean VisibilityMiles, Min VisibilityMiles, Max Wind SpeedMPH, Mean Wind SpeedMPH, Max Gust SpeedMPH,PrecipitationIn, CloudCover, Events, WindDirDegrees
2012-12-1,57,46,35,55,47,32,100,96,81,29.97,29.84,29.75,7,2,0,12,7,16,0.00,7,Fog,191
2012-12-2,55,44,33,48,42,34,100,92,67,30.02,29.91,29.78,8,4,0,15,4,,0.00,2,Fog,151
2012-12-3,60,52,44,57,40,23,100,70,38,30.08,29.80,29.61,10,7,0,24,12,39,0.00,2,Fog,296
2012-12-4,57,44,32,25,24,21,69,45,27,30.29,30.21,30.09,10,10,5,9,5,,0.00,0,,262
2012-12-5,55,42,30,28,26,21,80,54,26,30.31,30.11,29.91,10,10,10,25,13,37,0.00,0,,151
2012-12-6,50,46,39,37,31,27,76,58,40,29.99,29.92,29.86,10,10,9,25,13,36,0.00,6,Rain,336
2012-12-7,42,37,32,30,27,23,93,67,46,29.98,29.93,29.87,10,10,7,13,7,17,0.00,4,,29
2012-12-8,39,32,26,32,28,25,100,80,65,30.00,29.94,29.86,10,9,4,15,7,20,0.00,5,,114
2012-12-9,37,26,14,36,19,3,100,75,58,30.07,29.94,29.81,10,8,2,26,14,38,0.01,7,Rain-Snow,286
2012-12-10,26,16,5,5,2,-2,78,55,37,30.07,29.99,29.90,10,10,10,23,13,31,0.00,2,,255
2012-12-11,44,32,19,19,15,5,74,53,34,30.00,29.96,29.89,10,10,10,17,9,24,0.00,2,,230
2012-12-12,51,42,32,18,15,12,55,36,21,30.01,29.97,29.91,10,10,10,28,17,34,0.00,0,,196
2012-12-13,50,41,30,21,18,12,64,42,32,30.06,30.01,29.96,10,10,10,21,13,31,0.00,0,,213
2012-12-14,53,40,26,41,28,18,81,62,44,30.05,29.86,29.58,10,10,8,21,10,26,0.00,2,Rain,144
2012-12-15,46,40,33,46,40,32,100,93,87,29.70,29.55,29.43,10,6,2,22,14,25,0.61,8,Rain,258
2012-12-16,33,30,28,32,28,27,100,91,86,29.80,29.75,29.70,10,6,1,13,8,15,0.03,7,Rain-Snow,324
2012-12-17,32,28,24,30,27,25,100,95,86,29.78,29.69,29.59,10,4,0,13,4,16,0.00,7,Fog,157
2012-12-18,39,34,30,32,29,27,100,86,70,29.85,29.65,29.46,10,8,2,29,11,37,0.00,3,,229
2012-12-19,35,32,30,34,31,28,100,94,87,29.91,29.81,29.69,8,4,0,31,10,47,0.62,4,Fog-Rain-Snow,67
2012-12-20,30,24,17,28,17,10,100,83,73,30.20,29.96,29.70,10,5,0,33,23,44,0.00,5,Rain-Snow,322
2012-12-21,23,18,12,16,11,7,80,73,63,30.32,30.24,30.16,10,10,10,14,7,,0.00,0,Snow,222
2012-12-22,35,26,17,25,17,12,80,74,64,30.15,30.02,29.89,10,10,10,15,9,,0.00,0,,174
2012-12-23,19,16,14,14,13,9,93,84,73,30.01,29.98,29.94,10,7,4,10,8,,0.00,3,,347
2012-12-24,17,14,10,16,8,3,93,77,67,30.23,30.09,29.99,10,9,3,21,13,28,0.00,6,Snow,335
2012-12-25,12,6,1,5,0,-6,85,73,66,30.46,30.34,30.24,10,10,10,18,13,24,0.00,3,,353
2012-12-26,14,8,1,9,2,-4,85,75,67,30.33,30.23,30.15,10,10,10,12,8,15,0.00,0,,14
2012-12-27,23,16,10,19,14,7,93,84,79,30.14,30.04,29.96,10,9,1,14,8,18,0.00,6,Rain-Snow,96
2012-12-28,23,18,14,19,17,10,93,88,79,30.08,29.99,29.95,10,7,3,18,7,20,0.00,8,Rain-Snow,330
2012-12-29,21,16,10,16,11,7,92,78,63,30.21,30.16,30.08,10,9,3,12,8,15,0.00,3,Snow,247
2012-12-30,42,28,15,27,19,12,86,70,45,30.22,30.08,29.93,10,10,10,26,11,38,0.00,0,,203
2012-12-31,23,18,14,18,15,9,93,81,68,30.23,30.16,30.08,10,10,7,16,9,14,0.00,7,,8